Wind_Speed
9 9 9 9 9 9 9 9 9 9 9 8 8 8 7 7 6 6 5 4 4 3 3 3 3 3 3 3 4 4 5 6 6 6 6 6 7 7 8 8 9 9 9
7 8 7 7 8 7 7 8 8 8 7 7 7 7 7 6 6 5 4 3 3 2 1 1 1 2 2 3 3 4 5 6 6 7 7 7 7 9 10 10 10 10 9
7 6 6 6 7 6 6 6 6 7 6 5 5 5 5 5 5 4 3 2 1 1 1 1 2 2 3 4 3 4 5 5 6 7 8 8 8 9 10 11 11 11 12
7 7 5 5 5 5 5 5 5 5 5 4 3 3 3 4 3 3 2 1 1 1 2 2 3 3 4 5 5 4 5 6 7 7 8 8 9 9 9 11 11 12 13
9 8 6 5 5 5 5 5 5 4 4 3 2 1 2 2 2 2 2 2 2 3 3 4 4 5 5 6 7 6 6 6 7 8 8 8 9 9 10 11 11 12 13
11 9 8 8 8 7 6 6 6 5 4 3 3 3 3 2 2 2 3 3 3 4 4 4 5 6 6 6 7 7 7 7 8 9 10 10 10 10 11 12 13 13 13
12 12 11 11 10 8 7 7 6 5 5 4 4 4 4 3 3 3 4 4 4 5 5 6 7 7 7 8 8 9 9 9 10 10 11 11 11 12 12 12 13 14 14
15 14 13 12 11 10 9 9 7 7 7 6 6 5 6 6 6 6 5 5 5 6 6 7 8 9 9 8 9 10 10 10 11 12 12 12 12 12 12 12 13 14 14
16 14 14 13 12 11 10 10 10 9 9 9 9 8 8 8 7 7 7 7 7 7 8 8 8 9 10 10 10 10 11 12 12 12 13 13 13 11 11 12 12 14 14
17 16 14 15 15 13 12 12 12 12 12 12 12 11 11 10 10 9 9 10 10 10 10 10 10 11 12 12 12 12 13 13 14 13 13 14 14 14 13 13 14 14 15
18 18 17 15 16 16 16 15 14 15 15 15 15 15 14 14 13 13 12 12 13 13 13 13 13 14 14 15 15 16 16 16 15 16 16 16 16 16 16 16 16 16 16
22 21 20 18 18 19 18 17 17 17 18 18 18 18 17 17 16 15 15 15 15 15 15 16 16 17 17 17 18 19 18 18 17 17 17 17 18 18 18 18 18 18 18
24 23 22 20 20 20 20 20 19 20 20 20 19 19 19 18 17 17 17 17 18 18 18 18 19 20 20 19 19 20 20 20 20 19 19 19 19 19 19 19 19 19 19
26 25 24 24 23 21 21 22 21 21 22 22 21 22 21 20 20 20 19 20 20 21 21 21 21 22 22 21 21 22 22 21 22 22 22 22 21 21 21 22 22 22 22
28 28 27 26 25 24 23 23 24 23 23 24 24 23 23 23 22 22 22 22 22 23 23 23 23 23 23 23 23 24 24 24 24 25 25 25 25 25 24 24 24 25 24
30 30 29 28 27 27 25 25 26 26 26 26 25 24 24 25 24 25 25 25 25 25 26 26 26 25 25 25 26 26 26 26 26 26 26 26 27 27 27 26 26 26 26
31 31 32 32 30 30 29 28 27 28 27 27 27 28 27 27 28 28 28 29 29 28 27 27 28 28 27 27 27 27 28 29 28 28 28 28 28 29 29 29 29 29 29
34 33 32 32 31 31 31 30 29 28 28 29 30 30 31 31 31 31 31 31 31 30 30 29 31 30 29 29 29 29 30 30 29 29 29 29 30 31 31 32 32 31 31
36 35 34 32 32 32 31 31 30 29 29 30 30 31 32 32 32 32 32 32 32 32 32 33 32 30 29 30 30 30 30 31 30 30 30 31 32 33 33 33 33 32 31
36 36 34 33 34 33 33 31 31 31 31 31 31 32 32 32 33 33 33 33 33 34 35 35 33 32 31 31 31 31 32 32 32 31 31 31 32 33 34 34 34 32 32
38 37 36 36 36 35 34 33 33 33 33 32 33 33 34 34 35 35 35 35 34 35 35 34 34 33 33 33 32 32 33 33 33 33 33 33 34 34 35 34 34 33 33
37 37 36 35 36 35 35 35 35 35 34 34 35 35 36 36 36 36 36 35 35 35 35 35 35 34 34 34 34 34 35 34 34 34 34 35 35 36 36 36 35 35 35
36 36 37 35 36 35 35 36 36 35 35 36 36 36 37 37 37 37 37 36 36 36 35 35 36 36 35 35 35 36 36 36 36 36 36 36 36 36 36 36 36 36 37
35 36 36 35 34 35 35 36 36 37 36 37 37 37 37 37 37 38 37 37 37 37 38 37 36 36 36 36 37 37 37 37 37 36 37 36 36 36 36 36 37 38 38
35 36 36 36 34 34 35 35 36 36 37 37 37 37 37 37 37 37 38 38 37 37 37 37 36 36 36 37 37 37 37 37 37 37 37 37 37 38 38 38 39 39 38
35 35 36 35 35 34 35 36 36 36 37 37 37 37 37 37 37 37 37 38 37 37 36 36 36 36 36 36 36 37 37 38 38 38 38 38 39 39 39 40 39 39 38
Wind_Direction
18 20 23 27 30 35 40 43 49 53 55 60 68 72 72 72 75 80 90 104 117 125 131 134 149 162 181 197 209 217 220 224 234 239 243 243 242 247 248 250 251 252 257
7 12 16 15 16 20 29 34 38 43 48 54 55 60 67 69 69 71 78 90 105 115 127 152 159 188 205 202 212 223 233 236 240 243 249 253 253 251 251 252 256 257 257
345 358 359 357 0 3 12 18 22 28 36 45 48 53 62 66 63 59 61 68 105 155 192 236 230 229 229 237 236 239 247 248 246 247 251 251 258 261 258 255 258 261 260
313 333 337 334 341 346 351 360 3 18 24 33 36 39 58 55 52 48 36 30 351 264 263 252 241 246 255 257 253 257 260 262 258 259 255 254 255 266 263 254 257 263 264
292 308 314 312 316 320 325 331 343 352 1 8 5 4 22 25 23 23 2 338 289 265 263 264 261 262 267 266 259 262 265 267 268 265 259 260 262 268 263 259 261 264 264
284 291 300 298 296 300 299 305 308 320 326 329 321 318 321 332 341 324 313 299 270 261 266 272 275 270 270 271 268 265 269 267 269 269 263 265 269 272 267 261 263 266 267
274 282 289 291 292 287 283 282 285 297 306 304 300 305 305 302 301 296 297 294 284 277 272 269 277 276 275 273 272 266 270 274 274 271 270 271 273 276 271 266 266 266 266
278 278 281 279 277 277 280 275 281 285 287 286 285 289 293 291 293 292 289 297 292 285 278 275 276 275 275 276 275 271 272 274 275 274 272 273 272 274 273 273 272 269 268
279 278 282 275 274 273 275 280 283 279 280 280 276 277 279 281 285 287 283 285 289 286 282 284 283 279 275 277 278 274 272 270 273 274 275 272 271 273 276 277 275 272 269
279 279 280 277 274 276 274 278 279 275 273 275 272 273 274 276 278 278 278 280 282 285 282 284 284 281 278 278 276 270 271 269 271 275 277 274 274 273 275 275 274 273 271
277 280 279 277 276 277 277 278 280 276 274 275 274 270 269 273 272 274 276 277 279 279 278 278 279 281 279 277 274 268 269 271 272 274 275 274 274 274 273 273 273 272 272
274 276 278 280 277 276 276 278 278 279 276 271 272 272 271 272 274 274 275 277 278 277 281 281 278 278 277 277 274 269 270 271 272 272 273 275 276 274 275 275 276 276 273
272 268 273 276 276 275 274 276 277 278 277 271 270 273 272 271 273 275 274 277 277 278 279 283 281 279 278 276 275 271 270 271 273 274 275 276 278 277 276 277 278 278 275
272 268 270 273 273 274 276 275 274 274 274 274 273 273 271 271 271 271 274 275 277 278 278 281 283 281 279 276 274 271 270 271 274 274 275 277 277 276 276 275 276 276 276
270 270 268 272 274 274 275 274 272 270 271 273 275 270 268 272 272 274 275 277 278 278 278 280 280 281 279 276 274 272 270 271 273 273 274 274 273 274 275 274 274 275 276
268 268 267 269 272 274 273 273 270 268 267 270 274 271 268 272 274 274 276 277 278 277 278 277 277 279 280 278 276 274 272 270 272 272 272 273 272 273 274 274 275 276 277
265 265 263 266 269 270 271 270 269 267 268 269 270 269 268 269 270 271 273 276 279 277 278 278 279 279 279 280 279 278 275 273 273 273 273 272 272 272 273 274 275 277 276
266 266 265 267 269 270 269 268 268 269 268 268 269 269 269 269 270 272 273 276 279 278 277 280 280 279 280 280 280 278 276 273 275 276 274 273 273 273 274 275 276 275 275
268 267 266 267 268 268 267 267 267 268 269 269 270 271 272 273 275 276 275 275 277 277 279 279 279 278 277 280 280 280 277 275 274 274 274 273 273 273 275 275 275 273 273
266 265 264 266 267 267 268 268 268 269 270 271 273 272 273 273 274 276 275 274 275 277 278 279 279 279 279 279 279 278 278 276 274 274 274 273 274 275 276 275 273 273 272
266 266 266 267 267 268 268 268 268 268 269 271 273 273 274 274 274 275 276 275 274 275 277 278 278 278 279 279 278 277 278 277 275 274 273 273 274 275 275 274 273 272 271
267 267 267 267 267 267 267 268 270 269 269 270 272 273 274 274 276 276 276 276 276 276 277 277 277 276 276 277 277 276 275 275 275 274 273 273 274 275 274 273 272 271 271
267 268 268 265 265 265 266 268 269 270 270 271 272 273 274 275 276 277 277 276 277 278 279 279 277 275 276 276 277 276 277 275 274 274 273 273 274 274 272 271 271 271 272
269 268 267 264 263 264 266 267 267 268 269 270 272 273 273 274 275 276 277 277 277 278 279 279 278 277 277 277 277 276 275 274 273 273 273 272 272 273 273 274 274 273 273
269 269 267 264 264 264 265 266 267 266 267 269 271 272 272 272 274 275 276 277 277 278 278 277 277 276 276 277 277 274 273 272 271 272 272 273 274 274 274 274 274 273 272
268 268 266 264 264 264 265 266 267 268 268 269 271 272 272 273 273 273 274 275 276 276 275 276 277 276 277 276 277 277 274 272 271 271 272 273 274 274 273 272 271 271 271
Height
5901 5900 5899 5897 5896 5895 5894 5893 5892 5891 5890 5889 5888 5888 5887 5887 5887 5887 5887 5887 5887 5887 5887 5887 5888 5888 5888 5889 5889 5889 5889 5889 5890 5890 5890 5890 5890 5890 5890 5890 5890 5890 5890
5900 5900 5900 5898 5897 5896 5895 5894 5893 5892 5891 5890 5889 5888 5888 5888 5887 5887 5887 5887 5887 5887 5887 5887 5887 5888 5888 5888 5888 5888 5888 5888 5888 5888 5888 5888 5889 5888 5888 5888 5888 5888 5888
5900 5899 5899 5898 5897 5896 5895 5894 5893 5892 5891 5890 5889 5889 5888 5888 5887 5887 5887 5887 5887 5886 5887 5887 5887 5887 5887 5887 5887 5887 5887 5887 5886 5886 5887 5886 5886 5886 5886 5886 5885 5885 5885
5898 5898 5898 5897 5896 5895 5895 5894 5893 5892 5891 5890 5889 5888 5888 5887 5887 5887 5886 5886 5886 5886 5886 5886 5886 5886 5886 5886 5886 5886 5885 5885 5885 5885 5884 5884 5884 5884 5883 5883 5883 5883 5882
5896 5897 5897 5896 5895 5894 5893 5893 5892 5891 5890 5889 5888 5888 5887 5887 5886 5886 5885 5885 5884 5884 5884 5884 5884 5884 5884 5884 5883 5883 5883 5883 5883 5882 5882 5881 5881 5881 5880 5880 5880 5879 5879
5894 5894 5894 5894 5893 5892 5891 5891 5890 5889 5888 5888 5887 5887 5886 5885 5885 5884 5884 5883 5883 5882 5882 5882 5882 5882 5882 5881 5881 5881 5881 5881 5880 5879 5879 5878 5878 5877 5877 5877 5876 5876 5875
5890 5890 5890 5891 5890 5889 5889 5888 5887 5888 5887 5886 5886 5885 5884 5884 5883 5883 5882 5882 5881 5880 5880 5880 5879 5879 5878 5878 5878 5878 5878 5877 5877 5876 5876 5875 5875 5874 5874 5873 5873 5872 5872
5886 5886 5887 5887 5886 5886 5885 5885 5884 5885 5885 5884 5883 5883 5882 5882 5882 5881 5880 5879 5879 5878 5877 5876 5876 5876 5875 5875 5875 5874 5874 5874 5873 5873 5872 5872 5871 5870 5870 5869 5869 5868 5868
5882 5882 5882 5882 5882 5882 5882 5882 5881 5881 5882 5881 5881 5880 5879 5879 5878 5878 5877 5877 5876 5875 5874 5874 5873 5872 5871 5871 5871 5870 5870 5870 5869 5869 5869 5868 5867 5866 5866 5865 5865 5865 5864
5878 5878 5877 5877 5878 5878 5878 5878 5878 5878 5878 5877 5876 5876 5875 5875 5875 5874 5873 5873 5873 5872 5871 5870 5869 5868 5868 5867 5866 5866 5866 5865 5865 5865 5864 5864 5863 5862 5862 5861 5860 5860 5860
5873 5873 5873 5874 5873 5873 5873 5873 5872 5873 5873 5873 5872 5871 5870 5870 5870 5870 5869 5869 5868 5867 5867 5866 5865 5864 5863 5863 5862 5861 5861 5861 5860 5860 5860 5859 5859 5858 5857 5857 5856 5855 5855
5867 5867 5868 5868 5868 5868 5868 5868 5868 5868 5868 5867 5867 5866 5865 5865 5864 5864 5864 5863 5863 5862 5862 5861 5860 5859 5858 5857 5857 5856 5856 5856 5855 5855 5855 5854 5853 5853 5852 5852 5851 5850 5849
5861 5862 5862 5861 5862 5863 5863 5862 5862 5863 5862 5860 5861 5861 5860 5860 5859 5859 5858 5858 5857 5857 5856 5855 5854 5853 5851 5851 5850 5850 5850 5850 5850 5849 5849 5849 5848 5847 5847 5846 5845 5844 5844
5855 5855 5855 5855 5856 5856 5856 5856 5856 5857 5856 5855 5854 5854 5854 5854 5853 5853 5852 5851 5851 5850 5849 5848 5847 5846 5845 5844 5844 5844 5844 5843 5843 5843 5843 5842 5842 5841 5840 5839 5838 5838 5837
5848 5848 5848 5848 5849 5849 5849 5850 5850 5850 5849 5848 5847 5847 5847 5846 5846 5846 5845 5844 5844 5843 5842 5841 5840 5840 5838 5838 5837 5837 5836 5836 5836 5836 5835 5835 5834 5833 5833 5832 5831 5830 5830
5840 5840 5840 5841 5841 5842 5842 5842 5842 5841 5841 5841 5840 5840 5839 5839 5838 5838 5838 5837 5836 5835 5835 5834 5833 5832 5831 5831 5830 5829 5828 5828 5828 5828 5827 5826 5825 5825 5824 5824 5823 5822 5822
5832 5832 5832 5833 5833 5834 5834 5834 5833 5833 5833 5833 5833 5832 5832 5831 5831 5830 5830 5829 5829 5828 5827 5827 5826 5824 5824 5823 5822 5821 5820 5819 5819 5819 5818 5818 5817 5817 5816 5815 5814 5813 5812
5823 5822 5823 5823 5824 5825 5825 5825 5825 5824 5824 5824 5824 5824 5823 5822 5822 5822 5821 5821 5820 5819 5818 5818 5817 5816 5815 5814 5813 5812 5811 5811 5810 5809 5809 5808 5808 5807 5806 5805 5805 5804 5803
5813 5813 5813 5814 5814 5815 5815 5815 5815 5815 5815 5815 5815 5814 5814 5813 5813 5813 5813 5812 5811 5811 5810 5809 5808 5806 5806 5805 5804 5803 5802 5801 5800 5800 5799 5799 5798 5797 5796 5796 5795 5794 5793
5802 5802 5802 5803 5804 5804 5805 5805 5806 5806 5806 5806 5806 5806 5805 5805 5804 5803 5802 5802 5802 5801 5800 5800 5799 5798 5796 5795 5794 5794 5792 5791 5790 5789 5789 5789 5788 5787 5786 5785 5785 5784 5783
5792 5792 5792 5793 5793 5794 5795 5796 5797 5797 5797 5797 5797 5797 5796 5795 5795 5794 5793 5792 5791 5791 5790 5789 5788 5788 5787 5786 5785 5783 5782 5781 5780 5779 5779 5778 5778 5777 5776 5775 5774 5773 5773
5781 5781 5782 5783 5784 5785 5785 5786 5787 5787 5787 5787 5787 5787 5786 5786 5785 5784 5783 5781 5780 5779 5778 5778 5777 5777 5776 5775 5774 5773 5772 5770 5769 5768 5768 5768 5767 5766 5765 5763 5763 5762 5762
5772 5772 5772 5773 5774 5775 5776 5776 5776 5776 5776 5777 5777 5776 5775 5775 5774 5774 5773 5771 5770 5769 5767 5766 5766 5765 5764 5764 5763 5762 5760 5759 5758 5757 5757 5756 5755 5754 5753 5752 5751 5751 5751
5762 5763 5763 5763 5764 5765 5766 5766 5766 5766 5766 5766 5766 5765 5765 5764 5763 5762 5761 5760 5759 5757 5756 5755 5754 5754 5753 5753 5752 5750 5749 5747 5747 5746 5745 5744 5744 5743 5742 5741 5740 5740 5739
5752 5752 5752 5752 5753 5754 5755 5755 5755 5755 5755 5755 5754 5754 5754 5753 5752 5751 5750 5749 5747 5746 5745 5744 5743 5743 5742 5741 5740 5738 5737 5736 5735 5734 5733 5732 5732 5731 5730 5729 5728 5727 5726
5741 5741 5741 5741 5742 5743 5744 5744 5744 5744 5744 5743 5743 5742 5742 5741 5740 5739 5738 5736 5736 5734 5733 5732 5732 5731 5730 5729 5728 5727 5725 5724 5723 5722 5721 5720 5719 5719 5718 5717 5716 5715 5714